Find ADRAS-J

NORAD ID: 58992 Int'l Des: 2024-034 Owner: ASTSC Country: J operational
LEOCIRCULARRETROGRADE

当前视图

正在加载3D地球...

关于 ADRAS-J

正在加载描述...

即将过境

Passes for default location (London). Set your location on the main map for personalized predictions.

高度历史

Loading altitude history...

两行轨道根数

1 58992U 24034A 26146.32034371 .00092828 00000-0 12563-2 0 9996
2 58992 98.2235 174.5176 0176152 189.3615 170.4334 15.41273748124214
Epoch: May 26, 2026 • Age: 6 hours

当前状态

高度 525.7 km
速度 7.56 km/s
星下点 -47.49°S, 94.07°E
发射日期 Feb 18, 2024
运行时间 2.2 years
类型 other

技术详情

分类 Payload
质量 150.00 kg
干质量 120.00 kg
总质量 150.00 kg
长度 1.20 m
直径 0.80 m
跨度 3.70 m
形状 Box+2 pan
制造商 ASTSC
平台类型 ELSA
阶段状态 In Orbit
所有者/国家 ASTSC/J

Most Searched